Location: Bratislava
(48.1500°N, 17.1170°E)
Time: 07:49:57
(UTC+02:00)

Transit 4A - Visible Passes

Search period start: 08 June 2026 00:00
Search period end: 18 June 2026 00:00
Orbit: 860 x 980 km, 66.8° (Epoch: 7 June)

Date Brightness Start Highest point End Pass type
(mag) Time Alt. Az. Time Alt. Az. Time Alt. Az.
8 Jun 9.9 01:55:22 10° SE 01:59:05 17° ESE 02:02:51 10° ENE visible
8 Jun 8.1 03:38:31 12° SSW 03:44:26 82° ESE 03:50:52 10° NE visible
9 Jun 9.5 02:03:37 14° SSE 02:07:29 24° ESE 02:12:23 10° NE visible
9 Jun 8.1 03:47:05 11° SW 03:53:12 75° NW 03:59:38 10° NNE visible
10 Jun 9.0 02:12:08 18° SSE 02:15:57 34° ESE 02:21:34 10° NE visible
10 Jun 8.4 03:55:53 10° SW 04:02:02 57° NW 04:08:21 10° NNE visible
11 Jun 8.5 02:20:37 21° S 02:24:30 47° ESE 02:30:34 10° NE visible
11 Jun 8.8 04:04:58 10° WSW 04:10:56 43° NW 04:17:03 10° NNE visible
12 Jun 10.0 00:45:46 10° ESE 00:48:02 12° E 00:50:19 10° ENE visible
12 Jun 8.1 02:29:04 22° SSW 02:33:07 65° ESE 02:39:28 10° NE visible
13 Jun 9.6 00:54:00 15° SE 00:56:22 18° ESE 01:00:29 10° ENE visible
13 Jun 8.0 02:37:27 21° SSW 02:41:50 88° ESE 02:48:16 10° NE visible
14 Jun 9.2 01:02:22 20° SE 01:04:48 26° ESE 01:09:55 10° NE visible
14 Jun 8.1 02:45:49 18° SW 02:50:36 70° NW 02:57:02 10° NNE visible
15 Jun 8.8 01:10:41 26° SSE 01:13:17 37° ESE 01:19:03 10° NE visible
15 Jun 8.5 02:54:08 14° WSW 02:59:28 53° NW 03:05:45 10° NNE visible
16 Jun 8.3 01:18:57 29° S 01:21:51 51° ESE 01:28:01 10° NE visible
16 Jun 8.9 03:02:28 10° WSW 03:08:23 41° NW 03:14:26 10° NNE visible
16 Jun 9.8 23:43:44 12° ESE 23:45:19 13° E 23:48:12 10° ENE visible
17 Jun 8.0 01:27:10 29° SSW 01:30:30 71° ESE 01:36:53 10° NE visible
17 Jun 9.3 03:11:46 10° W 03:17:23 33° NW 03:23:07 10° NNE visible
17 Jun 9.4 23:51:54 18° SE 23:53:40 20° ESE 23:58:05 10° ENE visible
